RYR2869 EVRA-ENTO

Flight info

Callsign RYR2869
Flight time N/A
Altitude 34000
Route LAPSA Y130 RASEL DCT EBURI/N0393F280 Z166 VATEX
Aircraft B738/M-SDE3FGILRWY/SB1

Departure

Time 2026-05-01 15:02
Airport Riga International Airport (EVRA)

Arrival

Time N/A
Airport Sandefjord Airport, Torp (ENTO)
Time Latitude Longitude Altitude Speed Heading
2026-05-01 14:38 56.92189 23.97742 36 ft 0 kts
2026-05-01 14:54 56.92184 23.97741 33 ft 4 kts
2026-05-01 14:54 56.92159 23.97744 35 ft 4 kts 335°
2026-05-01 14:54 56.92144 23.97766 35 ft 4 kts 257°
2026-05-01 14:54 56.92145 23.97776 33 ft 1 kts 236°
2026-05-01 14:57 56.92135 23.97740 43 ft 7 kts 255°
2026-05-01 14:58 56.92135 23.97631 36 ft 10 kts 274°
2026-05-01 14:58 56.92153 23.97481 33 ft 14 kts 318°
2026-05-01 14:58 56.92268 23.97483 36 ft 20 kts
2026-05-01 14:58 56.92436 23.97519 35 ft 27 kts
2026-05-01 14:59 56.92631 23.97553 35 ft 28 kts
2026-05-01 14:59 56.92815 23.97582 35 ft 26 kts
2026-05-01 14:59 56.92990 23.97611 35 ft 24 kts
2026-05-01 14:59 56.93152 23.97627 34 ft 23 kts 347°
2026-05-01 15:00 56.93453 23.97564 34 ft 22 kts 326°
2026-05-01 15:00 56.93482 23.97328 33 ft 15 kts 243°
2026-05-01 15:00 56.93449 23.97293 33 ft 0 kts 188°
2026-05-01 15:01 56.93327 23.97272 34 ft 49 kts 185°
2026-05-01 15:01 56.92780 23.97182 36 ft 109 kts 185°
2026-05-01 15:01 56.91848 23.97022 55 ft 155 kts 186°
2026-05-01 15:02 56.90761 23.96859 614 ft 156 kts 184°
2026-05-01 15:02 56.90039 23.96778 990 ft 161 kts 186°
2026-05-01 15:02 56.88495 23.96509 1677 ft 170 kts 188°
2026-05-01 15:02 56.87233 23.96259 1977 ft 197 kts 188°
2026-05-01 15:03 56.85800 23.95949 2273 ft 213 kts 193°
2026-05-01 15:03 56.85314 23.95709 2375 ft 216 kts 205°
2026-05-01 15:03 56.84129 23.93950 2613 ft 232 kts 234°
2026-05-01 15:03 56.82755 23.90669 3158 ft 254 kts 234°
2026-05-01 15:04 56.81289 23.87237 4100 ft 259 kts 234°
2026-05-01 15:04 56.80170 23.84627 4788 ft 263 kts 234°
2026-05-01 15:04 56.79026 23.81965 5437 ft 269 kts 235°
2026-05-01 15:04 56.78120 23.79055 6049 ft 269 kts 259°
2026-05-01 15:05 56.78127 23.75675 6770 ft 263 kts 288°
2026-05-01 15:05 56.78876 23.72717 7439 ft 262 kts 305°
2026-05-01 15:05 56.79876 23.69977 8146 ft 264 kts 307°
2026-05-01 15:05 56.80927 23.67156 8873 ft 267 kts 307°
2026-05-01 15:06 56.81968 23.64326 9645 ft 269 kts 307°
2026-05-01 15:06 56.83007 23.61464 10389 ft 272 kts 307°
2026-05-01 15:06 56.84079 23.58501 10661 ft 293 kts 307°
2026-05-01 15:06 56.85233 23.55317 10877 ft 314 kts 308°
2026-05-01 15:07 56.86528 23.51972 11380 ft 322 kts 309°
2026-05-01 15:07 56.87834 23.48688 12084 ft 325 kts 309°
2026-05-01 15:07 56.89167 23.45336 12862 ft 326 kts 309°
2026-05-01 15:07 56.90504 23.41956 13663 ft 329 kts 310°
2026-05-01 15:08 56.91845 23.38544 14387 ft 332 kts 310°
2026-05-01 15:08 56.93195 23.35097 15072 ft 335 kts 310°
2026-05-01 15:08 56.94591 23.31651 15755 ft 337 kts 315°
2026-05-01 15:08 56.96363 23.28894 16461 ft 334 kts 328°
2026-05-01 15:09 56.98275 23.26434 17161 ft 337 kts 328°
2026-05-01 15:09 57.00205 23.23955 17840 ft 341 kts 328°
2026-05-01 15:09 57.02151 23.21439 18526 ft 344 kts 328°
2026-05-01 15:09 57.04114 23.18880 19121 ft 347 kts 328°
2026-05-01 15:10 57.06086 23.16292 19732 ft 350 kts 328°
2026-05-01 15:10 57.10070 23.11029 20920 ft 355 kts 328°
2026-05-01 15:10 57.12084 23.08361 21498 ft 358 kts 327°
2026-05-01 15:11 57.14111 23.05667 22041 ft 361 kts 327°
2026-05-01 15:11 57.18220 23.00200 23159 ft 367 kts 327°
2026-05-01 15:11 57.20293 22.97436 23720 ft 370 kts 327°
2026-05-01 15:12 57.21676 22.95590 24050 ft 371 kts 327°
2026-05-01 15:12 57.25256 22.88640 24899 ft 385 kts 307°
2026-05-01 15:12 57.26675 22.84423 25332 ft 388 kts 306°
2026-05-01 15:13 57.30507 22.73036 26402 ft 395 kts 307°
2026-05-01 15:14 57.33466 22.64388 27194 ft 400 kts 307°
2026-05-01 15:14 57.35834 22.56963 27824 ft 405 kts 303°
2026-05-01 15:14 57.38582 22.47760 28543 ft 411 kts 303°
2026-05-01 15:15 57.41395 22.38472 29262 ft 415 kts 303°
2026-05-01 15:15 57.44202 22.29125 30249 ft 413 kts 303°
2026-05-01 15:16 57.46974 22.19839 31100 ft 410 kts 303°
2026-05-01 15:16 57.49725 22.10593 31921 ft 407 kts 302°
2026-05-01 15:17 57.51984 22.02976 32640 ft 403 kts 303°
2026-05-01 15:18 57.56486 21.87732 33849 ft 402 kts 303°
2026-05-01 15:18 57.57372 21.84718 34105 ft 401 kts 303°
2026-05-01 15:19 57.61874 21.69352 34209 ft 403 kts 303°
2026-05-01 15:19 57.65848 21.55695 34207 ft 398 kts 302°
2026-05-01 15:20 57.69387 21.43601 34217 ft 398 kts 304°
2026-05-01 15:21 57.72301 21.34791 34218 ft 398 kts 306°
2026-05-01 15:21 57.75760 21.24529 34216 ft 399 kts 306°
2026-05-01 15:22 57.80154 21.11248 34213 ft 400 kts 305°
2026-05-01 15:22 57.83074 21.02357 34213 ft 400 kts 305°
2026-05-01 15:23 57.85985 20.93464 34206 ft 400 kts 304°
2026-05-01 15:23 57.88871 20.84626 34202 ft 399 kts 304°
2026-05-01 15:24 57.91764 20.75734 34198 ft 398 kts 304°
2026-05-01 15:24 57.94658 20.66806 34199 ft 396 kts 304°
2026-05-01 15:25 57.97496 20.58015 34186 ft 395 kts 303°
2026-05-01 15:25 58.00336 20.49192 34208 ft 393 kts 303°
2026-05-01 15:26 58.03163 20.40383 34193 ft 392 kts 304°
2026-05-01 15:26 58.06114 20.31731 34198 ft 391 kts 306°
2026-05-01 15:27 58.09112 20.23154 34186 ft 392 kts 306°
2026-05-01 15:28 58.13592 20.10207 34186 ft 393 kts 305°
2026-05-01 15:28 58.16568 20.01523 34180 ft 393 kts 304°
2026-05-01 15:29 58.21026 19.88435 34188 ft 395 kts 304°
2026-05-01 15:30 58.26473 19.72339 34182 ft 397 kts 304°
2026-05-01 15:31 58.35890 19.44252 34165 ft 398 kts 303°
2026-05-01 15:32 58.41802 19.26447 34167 ft 397 kts 303°
2026-05-01 15:34 58.50585 18.99744 34158 ft 396 kts 302°